HFM91 KRDU-KJFK

Flight info

Callsign HFM91
Flight time 1h 5m
Altitude 37000
Route HURIC4 FEBEL GUILD SAWED Q108 SIE CAMRN5
Aircraft A346/H-SDE2E3FGHIJ3J4J5M1RWXY/LB1D1

Departure

Time 2026-05-06 23:51
Airport Raleigh-Durham International Airport (KRDU)

Arrival

Time 2026-05-07 00:56
Airport John F. Kennedy International Airport (KJFK)
Time Latitude Longitude Altitude Speed Heading
2026-05-06 23:03 35.88741 -78.78056 429 ft 0 kts 133°
2026-05-06 23:34 35.88754 -78.78074 416 ft 0 kts 133°
2026-05-06 23:34 35.88772 -78.78098 416 ft 0 kts 133°
2026-05-06 23:35 35.88790 -78.78118 417 ft 0 kts 149°
2026-05-06 23:35 35.88806 -78.78121 417 ft 0 kts 191°
2026-05-06 23:35 35.88815 -78.78117 417 ft 0 kts 210°
2026-05-06 23:41 35.88809 -78.78121 419 ft 2 kts 211°
2026-05-06 23:41 35.88756 -78.78176 417 ft 12 kts 224°
2026-05-06 23:41 35.88727 -78.78215 420 ft 0 kts 252°
2026-05-06 23:42 35.88726 -78.78218 420 ft 2 kts 256°
2026-05-06 23:43 35.88725 -78.78233 423 ft 1 kts 275°
2026-05-06 23:43 35.88727 -78.78239 423 ft 1 kts 282°
2026-05-06 23:43 35.88728 -78.78246 424 ft 1 kts 285°
2026-05-06 23:43 35.88751 -78.78264 419 ft 6 kts
2026-05-06 23:44 35.88797 -78.78227 421 ft 10 kts 44°
2026-05-06 23:44 35.88852 -78.78161 420 ft 12 kts 45°
2026-05-06 23:44 35.88918 -78.78079 420 ft 15 kts 45°
2026-05-06 23:44 35.88980 -78.77968 420 ft 16 kts 79°
2026-05-06 23:45 35.89037 -78.77855 419 ft 16 kts 47°
2026-05-06 23:45 35.89122 -78.77748 419 ft 18 kts 45°
2026-05-06 23:45 35.89185 -78.77670 427 ft 11 kts 45°
2026-05-06 23:45 35.89218 -78.77638 420 ft 4 kts 11°
2026-05-06 23:46 35.89234 -78.77645 422 ft 1 kts 319°
2026-05-06 23:46 35.89236 -78.77648 422 ft 0 kts 315°
2026-05-06 23:46 35.89239 -78.77651 422 ft 3 kts 315°
2026-05-06 23:46 35.89262 -78.77679 420 ft 4 kts 315°
2026-05-06 23:47 35.89273 -78.77693 424 ft 0 kts 315°
2026-05-06 23:47 35.89274 -78.77694 424 ft 0 kts 315°
2026-05-06 23:47 35.89275 -78.77694 424 ft 0 kts 315°
2026-05-06 23:48 35.89276 -78.77697 425 ft 0 kts 315°
2026-05-06 23:48 35.89288 -78.77711 426 ft 1 kts 315°
2026-05-06 23:48 35.89289 -78.77712 427 ft 0 kts 315°
2026-05-06 23:49 35.89290 -78.77713 427 ft 3 kts 315°
2026-05-06 23:49 35.89333 -78.77766 424 ft 11 kts 314°
2026-05-06 23:49 35.89344 -78.77851 430 ft 12 kts 239°
2026-05-06 23:49 35.89264 -78.77954 427 ft 33 kts 225°
2026-05-06 23:50 35.88945 -78.78346 425 ft 95 kts 225°
2026-05-06 23:50 35.87535 -78.80086 549 ft 179 kts 225°
2026-05-06 23:50 35.86620 -78.81215 1016 ft 192 kts 225°
2026-05-06 23:51 35.85618 -78.82363 1574 ft 201 kts 217°
2026-05-06 23:51 35.84295 -78.83036 2158 ft 212 kts 200°
2026-05-06 23:51 35.82857 -78.83661 2711 ft 225 kts 204°
2026-05-06 23:51 35.81371 -78.84352 3347 ft 230 kts 204°
2026-05-06 23:52 35.79853 -78.85060 3960 ft 237 kts 205°
2026-05-06 23:52 35.78286 -78.85807 4594 ft 245 kts 206°
2026-05-06 23:52 35.76664 -78.86597 5230 ft 253 kts 206°
2026-05-06 23:52 35.75014 -78.87412 5907 ft 258 kts 206°
2026-05-06 23:53 35.73168 -78.87643 6502 ft 279 kts 173°
2026-05-06 23:53 35.71387 -78.86630 7395 ft 289 kts 147°
2026-05-06 23:53 35.69942 -78.84857 8091 ft 301 kts 132°
2026-05-06 23:53 35.69045 -78.82431 8530 ft 324 kts 101°
2026-05-06 23:54 35.69194 -78.79656 9148 ft 330 kts 68°
2026-05-06 23:54 35.70206 -78.77121 9936 ft 328 kts 56°
2026-05-06 23:54 35.71429 -78.74703 10545 ft 336 kts 54°
2026-05-06 23:54 35.72717 -78.72221 10949 ft 353 kts 54°
2026-05-06 23:55 35.74048 -78.69591 11293 ft 371 kts 56°
2026-05-06 23:55 35.75419 -78.66799 11632 ft 389 kts 56°
2026-05-06 23:55 35.76814 -78.63904 11927 ft 407 kts 57°
2026-05-06 23:55 35.78268 -78.60854 11978 ft 415 kts 57°
2026-05-06 23:56 35.79727 -78.57775 11980 ft 416 kts 57°
2026-05-06 23:56 35.81193 -78.54671 11982 ft 416 kts 57°
2026-05-06 23:56 35.82667 -78.51552 12172 ft 427 kts 57°
2026-05-06 23:56 35.84161 -78.48383 13015 ft 426 kts 57°
2026-05-06 23:57 35.85656 -78.45208 13978 ft 424 kts 57°
2026-05-06 23:57 35.87147 -78.42040 14719 ft 427 kts 57°
2026-05-06 23:57 35.88648 -78.38853 15360 ft 433 kts 57°
2026-05-06 23:57 35.90161 -78.35617 15995 ft 438 kts 58°
2026-05-06 23:58 35.91430 -78.32130 16645 ft 446 kts 68°
2026-05-06 23:58 35.92256 -78.28408 17321 ft 452 kts 77°
2026-05-06 23:58 35.92703 -78.24533 17965 ft 459 kts 82°
2026-05-06 23:58 35.93043 -78.20573 18449 ft 467 kts 82°
2026-05-06 23:59 35.93382 -78.16550 18918 ft 474 kts 82°
2026-05-06 23:59 35.93746 -78.12486 19466 ft 478 kts 82°
2026-05-06 23:59 35.94004 -78.09706 19845 ft 481 kts 82°
2026-05-06 23:59 35.94393 -78.05606 20391 ft 485 kts 82°
2026-05-07 00:00 35.94783 -78.01496 20918 ft 490 kts 82°
2026-05-07 00:00 35.95179 -77.97293 21447 ft 494 kts 82°
2026-05-07 00:00 35.95679 -77.93049 21953 ft 497 kts 75°
2026-05-07 00:00 35.96709 -77.88954 22524 ft 496 kts 64°
2026-05-07 00:01 35.98292 -77.85162 23084 ft 494 kts 54°
2026-05-07 00:01 36.00203 -77.81617 23756 ft 490 kts 51°
2026-05-07 00:01 36.02160 -77.78153 24781 ft 477 kts 51°
2026-05-07 00:01 36.04012 -77.74883 25850 ft 464 kts 51°
2026-05-07 00:02 36.05865 -77.71584 26724 ft 459 kts 51°
2026-05-07 00:02 36.07674 -77.68339 27341 ft 459 kts 51°
2026-05-07 00:02 36.09481 -77.65077 27886 ft 460 kts 51°
2026-05-07 00:02 36.11294 -77.61789 28477 ft 461 kts 51°
2026-05-07 00:03 36.13095 -77.58512 28952 ft 465 kts 51°
2026-05-07 00:03 36.14946 -77.55136 29175 ft 474 kts 51°
2026-05-07 00:03 36.16839 -77.51680 29393 ft 484 kts 52°
2026-05-07 00:03 36.18755 -77.48180 29588 ft 493 kts 52°
2026-05-07 00:04 36.20712 -77.44598 29799 ft 501 kts 52°
2026-05-07 00:04 36.22682 -77.40985 29985 ft 510 kts 52°
2026-05-07 00:04 36.24703 -77.37273 30179 ft 518 kts 52°
2026-05-07 00:04 36.26735 -77.33537 30335 ft 526 kts 52°
2026-05-07 00:05 36.28861 -77.29780 30590 ft 530 kts 49°
2026-05-07 00:05 36.31137 -77.26189 31007 ft 528 kts 44°
2026-05-07 00:05 36.33566 -77.22776 31420 ft 527 kts 40°
2026-05-07 00:05 36.36146 -77.19562 31820 ft 524 kts 36°
2026-05-07 00:06 36.38831 -77.16506 32282 ft 522 kts 34°
2026-05-07 00:06 36.41536 -77.13495 32797 ft 521 kts 33°
2026-05-07 00:06 36.44236 -77.10501 33288 ft 520 kts 32°
2026-05-07 00:06 36.46932 -77.07504 33759 ft 519 kts 32°
2026-05-07 00:07 36.49620 -77.04507 34177 ft 519 kts 31°
2026-05-07 00:07 36.52270 -77.01546 34599 ft 518 kts 31°
2026-05-07 00:07 36.54984 -76.98499 34994 ft 518 kts 31°
2026-05-07 00:07 36.57623 -76.95535 35367 ft 518 kts 31°
2026-05-07 00:08 36.60301 -76.92525 35687 ft 519 kts 31°
2026-05-07 00:08 36.62117 -76.90482 35886 ft 519 kts 30°
2026-05-07 00:08 36.64292 -76.88033 36095 ft 521 kts 30°
2026-05-07 00:08 36.66990 -76.84990 36380 ft 521 kts 31°
2026-05-07 00:09 36.69678 -76.81951 36719 ft 520 kts 30°
2026-05-07 00:09 36.72363 -76.78912 36926 ft 521 kts 30°
2026-05-07 00:09 36.77736 -76.72824 36933 ft 522 kts 30°
2026-05-07 00:10 36.83115 -76.66716 36928 ft 522 kts 30°
2026-05-07 00:10 36.88496 -76.60593 36920 ft 523 kts 30°
2026-05-07 00:11 36.93872 -76.54462 36920 ft 523 kts 31°
2026-05-07 00:11 36.99253 -76.48318 36893 ft 523 kts 31°
2026-05-07 00:12 37.04619 -76.42170 36888 ft 521 kts 31°
2026-05-07 00:12 37.09964 -76.36038 36890 ft 521 kts 31°
2026-05-07 00:13 37.15346 -76.29864 36896 ft 530 kts 31°
2026-05-07 00:13 37.20852 -76.23536 36910 ft 540 kts 31°
2026-05-07 00:14 37.26395 -76.17127 36904 ft 542 kts 31°
2026-05-07 00:14 37.31894 -76.10758 36900 ft 539 kts 32°
2026-05-07 00:15 37.37399 -76.04370 36943 ft 538 kts 32°
2026-05-07 00:15 37.42918 -75.97963 36919 ft 541 kts 32°
2026-05-07 00:16 37.48451 -75.91519 36899 ft 541 kts 31°
2026-05-07 00:16 37.54202 -75.85552 36903 ft 530 kts 25°
2026-05-07 00:17 37.60299 -75.80509 36903 ft 520 kts 19°
2026-05-07 00:17 37.66557 -75.75862 36892 ft 517 kts 19°
2026-05-07 00:18 37.72748 -75.71253 36900 ft 516 kts 19°
2026-05-07 00:18 37.78931 -75.66606 36923 ft 517 kts 19°
2026-05-07 00:19 37.85112 -75.61841 36904 ft 524 kts 22°
2026-05-07 00:19 37.91123 -75.56668 36903 ft 527 kts 23°
2026-05-07 00:20 37.97156 -75.51374 36895 ft 527 kts 23°
2026-05-07 00:20 38.03209 -75.46076 36905 ft 529 kts 23°
2026-05-07 00:21 38.09329 -75.40897 36876 ft 525 kts 21°
2026-05-07 00:21 38.15504 -75.35933 36881 ft 522 kts 20°
2026-05-07 00:22 38.18609 -75.33606 36830 ft 511 kts 17°
2026-05-07 00:22 38.21721 -75.31565 36629 ft 496 kts 13°
2026-05-07 00:22 38.24850 -75.29810 36153 ft 486 kts
2026-05-07 00:22 38.28014 -75.28336 35450 ft 482 kts
2026-05-07 00:23 38.31225 -75.27127 35027 ft 481 kts
2026-05-07 00:23 38.34488 -75.26158 34887 ft 480 kts 359°
2026-05-07 00:23 38.41046 -75.24722 34887 ft 478 kts 357°
2026-05-07 00:24 38.47624 -75.23374 34896 ft 480 kts 356°
2026-05-07 00:24 38.54215 -75.22003 34887 ft 480 kts 357°
2026-05-07 00:25 38.60811 -75.20596 34884 ft 483 kts 358°
2026-05-07 00:25 38.64095 -75.19634 34696 ft 484 kts
2026-05-07 00:25 38.67324 -75.18339 34415 ft 491 kts
2026-05-07 00:26 38.70533 -75.16699 34046 ft 501 kts 12°
2026-05-07 00:26 38.73688 -75.14698 33506 ft 511 kts 18°
2026-05-07 00:26 38.76753 -75.12325 32892 ft 519 kts 23°
2026-05-07 00:26 38.79705 -75.09614 32281 ft 524 kts 27°
2026-05-07 00:27 38.82609 -75.06756 31670 ft 526 kts 28°
2026-05-07 00:27 38.85459 -75.03905 31088 ft 527 kts 28°
2026-05-07 00:27 38.88357 -75.01004 30436 ft 528 kts 28°
2026-05-07 00:27 38.91266 -74.98113 29761 ft 530 kts 28°
2026-05-07 00:28 38.94188 -74.95222 29025 ft 530 kts 29°
2026-05-07 00:28 38.97120 -74.92325 28317 ft 530 kts 29°
2026-05-07 00:28 39.00035 -74.89444 27667 ft 529 kts 29°
2026-05-07 00:28 39.02952 -74.86557 27258 ft 526 kts 29°
2026-05-07 00:29 39.05847 -74.83689 26758 ft 523 kts 29°
2026-05-07 00:29 39.08720 -74.80840 26278 ft 519 kts 30°
2026-05-07 00:30 39.17007 -74.72015 24946 ft 508 kts 32°
2026-05-07 00:30 39.19701 -74.69089 24515 ft 504 kts 32°
2026-05-07 00:30 39.22389 -74.66171 24087 ft 500 kts 32°
2026-05-07 00:30 39.25039 -74.63292 23686 ft 497 kts 32°
2026-05-07 00:31 39.27683 -74.60422 23185 ft 494 kts 32°
2026-05-07 00:31 39.30305 -74.57580 22720 ft 490 kts 32°
2026-05-07 00:31 39.32910 -74.54754 22268 ft 486 kts 32°
2026-05-07 00:31 39.35483 -74.51956 21829 ft 481 kts 32°
2026-05-07 00:32 39.37998 -74.49218 21434 ft 477 kts 32°
2026-05-07 00:32 39.40527 -74.46463 21018 ft 472 kts 32°
2026-05-07 00:32 39.43029 -74.43737 20631 ft 468 kts 32°
2026-05-07 00:32 39.45541 -74.40997 20186 ft 465 kts 33°
2026-05-07 00:33 39.47995 -74.38319 19772 ft 462 kts 33°
2026-05-07 00:33 39.50440 -74.35647 19346 ft 458 kts 33°
2026-05-07 00:33 39.52867 -74.32989 18945 ft 454 kts 33°
2026-05-07 00:33 39.55271 -74.30353 18529 ft 451 kts 33°
2026-05-07 00:34 39.57658 -74.27736 18109 ft 448 kts 34°
2026-05-07 00:34 39.60036 -74.25127 17701 ft 447 kts 34°
2026-05-07 00:34 39.62405 -74.22526 17235 ft 445 kts 34°
2026-05-07 00:34 39.64762 -74.19935 16704 ft 443 kts 34°
2026-05-07 00:35 39.67112 -74.17350 16166 ft 442 kts 35°
2026-05-07 00:35 39.69456 -74.14769 15617 ft 441 kts 35°
2026-05-07 00:35 39.71791 -74.12197 15062 ft 440 kts 36°
2026-05-07 00:35 39.74126 -74.09621 14462 ft 438 kts 36°
2026-05-07 00:36 39.76418 -74.07085 13917 ft 427 kts 36°
2026-05-07 00:36 39.78645 -74.04618 13423 ft 426 kts 36°
2026-05-07 00:36 39.80904 -74.02117 12848 ft 426 kts 36°
2026-05-07 00:36 39.83195 -73.99694 12242 ft 424 kts 32°
2026-05-07 00:37 39.85620 -73.97537 11791 ft 417 kts 27°
2026-05-07 00:37 39.88124 -73.95667 11640 ft 402 kts 24°
2026-05-07 00:37 39.90540 -73.93963 11516 ft 388 kts 23°
2026-05-07 00:37 39.92097 -73.92876 11444 ft 379 kts 23°
2026-05-07 00:38 39.95003 -73.90841 11302 ft 364 kts 23°
2026-05-07 00:38 39.97187 -73.89301 11190 ft 351 kts 23°
2026-05-07 00:38 39.99302 -73.87803 11101 ft 339 kts 22°
2026-05-07 00:38 40.01330 -73.86292 11028 ft 330 kts 26°
2026-05-07 00:39 40.03259 -73.84681 11020 ft 330 kts 27°
2026-05-07 00:39 40.05177 -73.83041 10993 ft 327 kts 27°
2026-05-07 00:39 40.07065 -73.81415 10723 ft 324 kts 27°
2026-05-07 00:39 40.08950 -73.79793 10326 ft 325 kts 27°
2026-05-07 00:40 40.10811 -73.78199 10013 ft 323 kts 27°
2026-05-07 00:40 40.12706 -73.76577 9672 ft 321 kts 27°
2026-05-07 00:40 40.14543 -73.75007 9333 ft 319 kts 27°
2026-05-07 00:40 40.16397 -73.73426 8993 ft 316 kts 27°
2026-05-07 00:41 40.18231 -73.71865 8655 ft 314 kts 27°
2026-05-07 00:41 40.20057 -73.70306 8334 ft 312 kts 27°
2026-05-07 00:41 40.21859 -73.68755 8013 ft 309 kts 27°
2026-05-07 00:41 40.23654 -73.67215 7679 ft 308 kts 27°
2026-05-07 00:42 40.25442 -73.65682 7387 ft 305 kts 27°
2026-05-07 00:42 40.27209 -73.64176 7073 ft 302 kts 27°
2026-05-07 00:42 40.28974 -73.62701 6777 ft 300 kts 27°
2026-05-07 00:42 40.30730 -73.61249 6489 ft 297 kts 27°
2026-05-07 00:43 40.32477 -73.59814 6178 ft 295 kts 27°
2026-05-07 00:43 40.34213 -73.58394 5871 ft 293 kts 27°
2026-05-07 00:43 40.35960 -73.56974 5538 ft 292 kts 27°
2026-05-07 00:43 40.37685 -73.55578 5213 ft 290 kts 27°
2026-05-07 00:44 40.39404 -73.54193 4893 ft 290 kts 27°
2026-05-07 00:44 40.41121 -73.52811 4573 ft 289 kts 27°
2026-05-07 00:44 40.42832 -73.51437 4249 ft 288 kts 27°
2026-05-07 00:44 40.44535 -73.50071 4014 ft 285 kts 27°
2026-05-07 00:45 40.46246 -73.48750 3993 ft 285 kts 20°
2026-05-07 00:45 40.48129 -73.48197 3995 ft 274 kts 354°
2026-05-07 00:45 40.50017 -73.48323 4006 ft 271 kts 348°
2026-05-07 00:45 40.51257 -73.48486 4002 ft 270 kts 347°
2026-05-07 00:46 40.53129 -73.48764 3993 ft 270 kts 347°
2026-05-07 00:46 40.54994 -73.49050 4003 ft 270 kts 347°
2026-05-07 00:46 40.56859 -73.49337 4001 ft 269 kts 347°
2026-05-07 00:46 40.58712 -73.49626 3996 ft 268 kts 347°
2026-05-07 00:47 40.60464 -73.49898 3997 ft 269 kts 347°
2026-05-07 00:47 40.62326 -73.50191 3995 ft 269 kts 347°
2026-05-07 00:47 40.64190 -73.50479 3996 ft 270 kts 347°
2026-05-07 00:47 40.66033 -73.50758 3928 ft 261 kts 347°
2026-05-07 00:48 40.67808 -73.51027 3600 ft 252 kts 347°
2026-05-07 00:48 40.69518 -73.51280 3287 ft 243 kts 347°
2026-05-07 00:48 40.71169 -73.51517 2982 ft 234 kts 347°
2026-05-07 00:48 40.72763 -73.51742 2715 ft 227 kts 347°
2026-05-07 00:49 40.74319 -73.51946 2490 ft 223 kts 347°
2026-05-07 00:49 40.75863 -73.52151 2196 ft 222 kts 347°
2026-05-07 00:49 40.77376 -73.52379 1998 ft 219 kts 341°
2026-05-07 00:49 40.78609 -73.53228 1941 ft 186 kts 304°
2026-05-07 00:50 40.79139 -73.54626 1956 ft 164 kts 281°
2026-05-07 00:50 40.79417 -73.56079 1969 ft 163 kts 278°
2026-05-07 00:50 40.79474 -73.57532 1957 ft 157 kts 251°
2026-05-07 00:50 40.78940 -73.58907 1978 ft 160 kts 239°
2026-05-07 00:51 40.78325 -73.60132 1975 ft 160 kts 238°
2026-05-07 00:51 40.77690 -73.61351 1998 ft 160 kts 237°
2026-05-07 00:51 40.77055 -73.62555 1997 ft 160 kts 237°
2026-05-07 00:51 40.76420 -73.63760 1989 ft 160 kts 237°
2026-05-07 00:52 40.75781 -73.64971 1998 ft 161 kts 237°
2026-05-07 00:52 40.75142 -73.66178 1998 ft 160 kts 237°
2026-05-07 00:52 40.74421 -73.67301 1993 ft 161 kts 227°
2026-05-07 00:52 40.73542 -73.68245 1994 ft 164 kts 221°
2026-05-07 00:53 40.72597 -73.69114 1871 ft 166 kts 219°
2026-05-07 00:53 40.71622 -73.69923 1653 ft 165 kts 216°
2026-05-07 00:53 40.70656 -73.70678 1424 ft 156 kts 216°
2026-05-07 00:53 40.69758 -73.71380 1181 ft 144 kts 216°
2026-05-07 00:54 40.68914 -73.72053 954 ft 142 kts 214°
2026-05-07 00:54 40.68048 -73.72722 841 ft 146 kts 213°
2026-05-07 00:54 40.67188 -73.73405 668 ft 146 kts 214°
2026-05-07 00:54 40.66316 -73.74107 486 ft 147 kts 209°
2026-05-07 00:55 40.65431 -73.74778 294 ft 148 kts 211°
2026-05-07 00:55 40.64544 -73.75473 106 ft 148 kts 210°
2026-05-07 00:55 40.63713 -73.76121 29 ft 116 kts 210°
2026-05-07 00:55 40.63212 -73.76509 30 ft 51 kts 211°
2026-05-07 00:56 40.63036 -73.76683 29 ft 27 kts 227°
2026-05-07 00:56 40.62937 -73.76883 29 ft 21 kts 252°
2026-05-07 00:56 40.62956 -73.77029 29 ft 16 kts 294°
2026-05-07 00:56 40.63019 -73.77166 29 ft 19 kts 301°
2026-05-07 00:57 40.63090 -73.77324 30 ft 21 kts 300°
2026-05-07 00:57 40.63170 -73.77502 30 ft 23 kts 301°
2026-05-07 00:57 40.63258 -73.77693 32 ft 25 kts 301°
2026-05-07 00:57 40.63342 -73.77876 30 ft 13 kts 301°
2026-05-07 00:58 40.63363 -73.77917 29 ft 0 kts 314°
2026-05-07 00:58 40.63369 -73.77925 29 ft 1 kts 330°
2026-05-07 00:58 40.63376 -73.77925 29 ft 1 kts
2026-05-07 00:58 40.63391 -73.77916 29 ft 4 kts 27°
2026-05-07 00:59 40.63480 -73.77848 29 ft 11 kts 32°
2026-05-07 00:59 40.63550 -73.77833 29 ft 11 kts 326°
2026-05-07 00:59 40.63626 -73.77888 29 ft 14 kts 347°
2026-05-07 01:00 40.63728 -73.77907 29 ft 16 kts 353°
2026-05-07 01:00 40.63854 -73.77926 29 ft 20 kts 353°
2026-05-07 01:00 40.63982 -73.77948 29 ft 9 kts 352°
2026-05-07 01:00 40.64023 -73.77961 29 ft 3 kts 335°
2026-05-07 01:01 40.64039 -73.77980 29 ft 2 kts 292°
2026-05-07 01:01 40.64034 -73.78017 29 ft 6 kts 251°
2026-05-07 01:01 40.64019 -73.78065 29 ft 0 kts 248°
2026-05-07 01:01 40.64018 -73.78071 29 ft 0 kts 248°